N8GD Weather Reports


time (UTC)temp
F
wind
direction
speed
knots
gust
knots
rain 1hr
in
rain 24hr
in
rain mn
in
humidity
%
barometer
mb
20260505123742 65 222 7.8 14.8 0.00 0.02 0.02 65 1007.7
20260505122243 64 229 1.7 11.3 0.00 0.02 0.02 67 1007.8
20260505120743 63 235 3.5 8.7 0.00 0.02 0.02 68 1007.8
20260505120644 63 209 0.9 8.7 0.00 0.02 0.02 68 1007.8
20260505115243 62 212 6.1 6.1 0.00 0.02 0.02 69 1007.9
20260505113742 62 241 1.7 7.8 0.00 0.02 0.02 70 1007.8
20260505113644 62 241 1.7 7.8 0.00 0.02 0.02 70 1007.8
20260505112242 62 231 1.7 9.6 0.00 0.02 0.02 70 1007.8
20260505110743 62 212 2.6 8.7 0.00 0.02 0.02 70 1007.8
20260505110648 62 233 2.6 8.7 0.00 0.02 0.02 70 1007.8
20260505100743 61 265 0.9 6.1 0.00 0.02 0.02 74 1007.0
20260505100647 61 235 0.9 6.1 0.00 0.02 0.02 74 1007.0
20260505095242 61 209 0.0 9.6 0.00 0.02 0.02 74 1006.7
20260505093742 61 181 4.3 8.7 0.00 0.02 0.02 74 1006.7
20260505092243 60 229 0.9 7.0 0.00 0.02 0.02 75 1006.5
20260505090742 61 160 4.3 7.8 0.00 0.02 0.02 74 1006.4
20260505085243 61 222 0.9 8.7 0.00 0.02 0.02 75 1006.3
20260505085144 61 224 4.3 7.0 0.00 0.02 0.02 75 1006.3
20260505083743 60 179 2.6 6.1 0.00 0.02 0.02 77 1006.5
20260505083647 60 235 2.6 6.1 0.00 0.02 0.02 77 1006.5
20260505082243 60 238 1.7 8.7 0.00 0.02 0.02 77 1006.4
20260505082142 60 238 1.7 8.7 0.00 0.02 0.02 77 1006.4
20260505080743 59 226 0.9 7.0 0.00 0.02 0.02 78 1006.5
20260505075243 59 213 0.0 5.2 0.00 0.02 0.02 80 1006.3
20260505075144 59 191 1.7 6.1 0.00 0.02 0.02 80 1006.3
20260505073743 59 180 0.0 7.0 0.00 0.02 0.02 80 1006.2
20260505072243 60 208 0.9 4.3 0.00 0.02 0.02 78 1006.3
20260505072143 60 225 0.9 6.1 0.01 0.02 0.02 78 1006.3
20260505070743 61 210 0.0 9.6 0.01 0.02 0.02 76 1006.2
20260505065243 61 206 3.5 13.0 0.02 0.02 0.02 75 1006.3
20260505065142 61 221 3.5 14.8 0.02 0.02 0.02 75 1006.3
20260505063743 61 217 1.7 10.4 0.02 0.02 0.02 76 1006.5
20260505062243 61 265 3.5 10.4 0.01 0.01 0.01 76 1006.8
20260505062142 61 265 3.5 10.4 0.01 0.01 0.01 76 1006.8
20260505060743 62 162 7.0 6.1 0.01 0.01 0.01 75 1007.0
20260505060705 62 162 7.0 6.1 0.01 0.01 0.01 75 1007.0
20260505055243 63 275 3.5 6.1 0.00 0.00 0.00 69 1006.9
20260505055144 63 275 3.5 6.1 0.00 0.00 0.00 69 1006.9
20260505053743 62 209 5.2 6.1 0.00 0.00 0.00 70 1006.9
20260505052243 61 248 0.9 6.1 0.00 0.00 0.00 71 1007.0
20260505052147 61 246 0.0 6.1 0.00 0.00 0.00 71 1007.0
20260505050743 61 204 0.0 5.2 0.00 0.00 0.00 70 1007.0
20260505040743 61 210 0.0 4.3 0.00 0.00 0.00 71 1007.1
20260505040647 61 221 0.0 4.3 0.00 0.00 0.00 71 1007.1
20260505035243 61 202 1.7 4.3 0.00 0.00 0.00 71 1007.1
20260505033743 60 228 0.9 3.5 0.00 0.00 0.00 72 1007.1
20260505032242 60 196 0.0 2.6 0.00 0.00 0.00 71 1007.1
20260505032145 60 196 0.0 2.6 0.00 0.00 0.00 71 1007.1
20260505030743 61 227 0.0 1.7 0.00 0.00 0.00 70 1007.3
20260505025243 61 200 0.0 1.7 0.00 0.00 0.00 70 1007.5
20260505025143 61 208 0.0 0.9 0.00 0.00 0.00 69 1007.5
20260505023744 62 202 0.9 1.7 0.00 0.00 0.00 68 1007.6
20260505022243 62 221 0.0 2.6 0.00 0.00 0.00 67 1007.6
20260505021006 63 216 0.0 2.6 0.00 0.00 0.00 66 1007.6
20260505020744 63 195 0.0 2.6 0.00 0.00 0.00 66 1007.6
20260505015243 63 218 0.9 3.5 0.00 0.00 0.00 66 1007.5
20260505015142 63 218 0.0 4.3 0.00 0.00 0.00 66 1007.5
20260505013742 63 209 0.0 2.6 0.00 0.00 0.00 65 1007.4
20260505012243 64 223 0.0 6.1 0.00 0.00 0.00 64 1007.2
20260505010744 64 219 0.9 4.3 0.00 0.00 0.00 63 1007.3
20260505005243 65 212 0.9 6.1 0.00 0.00 0.00 62 1007.2
20260505005144 65 224 0.0 6.1 0.00 0.00 0.00 62 1007.2
20260505003742 65 286 1.7 8.7 0.00 0.00 0.00 62 1007.1
20260505003705 65 254 1.7 8.7 0.00 0.00 0.00 61 1007.1
20260505002243 66 214 4.3 8.7 0.00 0.00 0.00 61 1006.8
20260505000742 67 210 5.2 9.6 0.00 0.00 0.00 59 1006.8
20260504235243 67 252 0.0 10.4 0.00 0.00 0.00 59 1006.7
20260504233744 68 209 1.7 7.8 0.00 0.00 0.00 57 1006.7
20260504232243 68 215 0.0 13.0 0.00 0.00 0.00 56 1006.7
20260504230744 69 216 1.7 12.2 0.00 0.00 0.00 56 1006.7
20260504225243 69 224 4.3 13.9 0.00 0.00 0.00 55 1007.1
20260504223743 69 239 1.7 14.8 0.00 0.00 0.00 56 1007.0
20260504222243 70 235 1.7 6.1 0.00 0.00 0.00 56 1007.2
20260504222142 70 234 3.5 12.2 0.00 0.00 0.00 56 1007.2
20260504220744 69 204 8.7 13.9 0.00 0.00 0.00 56 1007.2
20260504220659 69 242 4.3 13.9 0.00 0.00 0.00 56 1007.2
20260504215242 69 209 2.6 13.9 0.00 0.00 0.00 55 1007.1
20260504215152 69 209 2.6 13.9 0.00 0.00 0.00 55 1007.1
20260504213743 70 265 3.5 16.5 0.00 0.00 0.00 54 1007.0
20260504212242 69 212 6.1 13.0 0.00 0.00 0.00 55 1007.0
20260504210743 71 234 9.6 13.9 0.00 0.00 0.00 53 1006.8
20260504205242 71 201 10.4 14.8 0.00 0.00 0.00 53 1006.9
20260504203744 69 232 1.7 13.9 0.00 0.00 0.00 56 1006.8
20260504202243 70 187 6.1 13.9 0.00 0.00 0.00 54 1007.3
20260504200744 71 225 7.0 15.6 0.00 0.00 0.00 53 1007.4
20260504195243 71 225 7.0 14.8 0.00 0.00 0.00 52 1007.7
20260504193743 70 265 5.2 13.0 0.00 0.00 0.00 56 1007.8
20260504192243 70 231 7.8 15.6 0.00 0.00 0.00 56 1007.9
20260504190743 70 243 4.3 15.6 0.00 0.00 0.00 54 1008.0
20260504185242 70 193 4.3 17.4 0.00 0.00 0.00 54 1008.1
20260504183743 69 235 5.2 14.8 0.00 0.00 0.00 54 1008.5
20260504182242 69 211 4.3 13.0 0.00 0.00 0.00 57 1008.5
20260504180743 68 194 7.0 18.2 0.00 0.00 0.00 53 1008.6
20260504175242 69 227 6.1 11.3 0.00 0.00 0.00 54 1008.7
20260504173744 68 234 1.7 12.2 0.00 0.00 0.00 56 1008.9
20260504172243 68 210 1.7 8.7 0.00 0.00 0.00 55 1009.0
20260504172142 68 210 1.7 8.7 0.00 0.00 0.00 55 1009.0
20260504170742 67 229 3.5 7.0 0.00 0.00 0.00 58 1009.2
20260504150743 62 241 0.9 13.0 0.00 0.00 0.00 56 1010.9
20260504150708 62 229 3.5 13.0 0.00 0.00 0.00 57 1010.9